This is the latest recevied weather packets stored in our database for station/object NK0Z-13. If no packets are shown the sender has not sent any weather packets the latest 1 day(s).
| Time | Temp. | Humidity | Pressure | Rain* | Wind** | Luminosity | Snow |
|---|---|---|---|---|---|---|---|
| 1777966061 | 13.89° C | 64% | 1007.8 hPa | 0 mm | 1.79 m/s, 104° | 0 W/m² | - |
| 1777965459 | 13.89° C | 68% | 1007.9 hPa | 0 mm | 1.34 m/s, 0° | 0 W/m² | - |
| 1777964854 | 13.89° C | 69% | 1007.8 hPa | 0 mm | 2.24 m/s, 110° | 0 W/m² | - |
| 1777964251 | 13.89° C | 68% | 1007.3 hPa | 0 mm | 1.79 m/s, 86° | 0 W/m² | - |
| 1777963651 | 13.89° C | 70% | 1007.4 hPa | 0 mm | 3.13 m/s, 68° | 0 W/m² | - |
| 1777963046 | 13.89° C | 70% | 1007.1 hPa | 0 mm | 5.36 m/s, 67° | 0 W/m² | - |
| 1777962444 | 13.33° C | 73% | 1006.6 hPa | 0 mm | 4.02 m/s, 84° | 0 W/m² | - |
| 1777961839 | 13.33° C | 78% | 1006.7 hPa | 0 mm | 4.92 m/s, 20° | 0 W/m² | - |
| 1777961234 | 13.33° C | 80% | 1007 hPa | 0 mm | 2.24 m/s, 15° | 0 W/m² | - |
| 1777960632 | 13.33° C | 81% | 1006.5 hPa | 0 mm | 2.24 m/s, 28° | 0 W/m² | - |
| 1777960032 | 13.33° C | 82% | 1006.2 hPa | 0 mm | 1.34 m/s, 53° | 0 W/m² | - |
| 1777959428 | 13.33° C | 84% | 1005.9 hPa | 0 mm | 3.58 m/s, 51° | 0 W/m² | - |
| 1777958827 | 13.89° C | 84% | 1005.6 hPa | 0 mm | 4.47 m/s, 0° | 0 W/m² | - |
| 1777958227 | 13.89° C | 85% | 1006.1 hPa | 0 mm | 3.13 m/s, 49° | 0 W/m² | - |
| 1777957623 | 13.89° C | 85% | 1005.8 hPa | 0 mm | 4.02 m/s, 346° | 0 W/m² | - |
| 1777957021 | 13.89° C | 84% | 1006.1 hPa | 0 mm | 3.58 m/s, 349° | 0 W/m² | - |
| 1777956416 | 14.44° C | 81% | 1005.8 hPa | 0 mm | 2.68 m/s, 6° | 0 W/m² | - |
| 1777955815 | 15° C | 77% | 1005.7 hPa | 0 mm | 2.24 m/s, 346° | 0 W/m² | - |
| 1777955213 | 15.56° C | 72% | 1005.8 hPa | 0 mm | 2.24 m/s, 76° | 0 W/m² | - |
| 1777954608 | 16.67° C | 67% | 1005.9 hPa | 0 mm | 4.92 m/s, 12° | 0 W/m² | - |
* Rain latest hour (hover to see other rain measurements)
** Current wind speed in m/s (hover to see current wind gust speed)